Location: Taukkyan
(23.1052°N, 94.0030°E)
Time: 11:50:49
(UTC+00:00)

BREEZE-M DEB (TANK) - Pass Details

Date: 06 July 2020
Orbit: 344 x 14768 km, 49.6° (Epoch: 14 August)

Event Time Altitude Azimuth Distance (km) Brightness Sun altitude
Rises 14:08:26 0° 317° (NW) 6,980 10.0 -19.6°
Reaches altitude 10° 14:14:57 10° 320° (NW) 4,240 8.4 -20.8°
Maximum altitude 14:23:10 58° 39° (NE) 810 3.5 -22.2°
Enters shadow 14:23:43 53° 75° (ENE) 795 3.3 -22.3°
